• In Hungary
  • List of Countries
  • For 7 days
  • Water Temperature
  • Satellite Maps
  • Weather Map
  • News
  • Weather Widgets
  • user-avatar
    Login

    Hourly Weather Tskhinvali

    Today, 25 September, Tuesday

    Time Temperature Precipitation Wind Pressure Humidity
    00:00 +15°C° 0 mm 2 mps 684 mmHg 66%
    01:00 +14°C° 0 mm 2 mps 683 mmHg 67%
    02:00 +14°C° 0 mm 2 mps 683 mmHg 69%
    03:00 +15°C° 0 mm 2 mps 683 mmHg 72%
    04:00 +14°C° 0 mm 2 mps 683 mmHg 73%
    05:00 +14°C° 0 mm 2 mps 683 mmHg 74%
    06:00 +14°C° 0 mm 2 mps 682 mmHg 75%
    07:00 +16°C° 0 mm 2 mps 683 mmHg 68%
    08:00 +19°C° 0 mm 2 mps 683 mmHg 61%
    09:00 +21°C° 0 mm 3 mps 683 mmHg 54%
    10:00 +24°C° 0 mm 3 mps 683 mmHg 50%
    11:00 +25°C° 0 mm 3 mps 683 mmHg 46%
    12:00 +27°C° 0 mm 3 mps 683 mmHg 42%
    13:00 +27°C° 0 mm 3 mps 683 mmHg 40%
    14:00 +27°C° 0 mm 3 mps 683 mmHg 39%
    15:00 +28°C° 0 mm 3 mps 683 mmHg 37%
    16:00 +25°C° 0 mm 3 mps 683 mmHg 45%
    17:00 +21°C° 0 mm 3 mps 682 mmHg 52%
    18:00 +19°C° 0 mm 2 mps 682 mmHg 59%
    19:00 +18°C° 0 mm 2 mps 682 mmHg 66%
    20:00 +17°C° 0 mm 2 mps 682 mmHg 72%
    21:00 +15°C° 0 mm 2 mps 683 mmHg 79%
    22:00 +15°C° 0 mm 2 mps 683 mmHg 82%
    23:00 +15°C° 0 mm 2 mps 683 mmHg 84%

    Tomorrow, 26 September, Wednesday

    Time Temperature Precipitation Wind Pressure Humidity
    00:00 +15°C° 0 mm 2 mps 683 mmHg 87%
    01:00 +15°C° 0.1 mm 2 mps 683 mmHg 89%
    02:00 +15°C° 0.1 mm 2 mps 683 mmHg 91%
    03:00 +15°C° 0.1 mm 2 mps 683 mmHg 93%
    04:00 +15°C° 0.1 mm 2 mps 684 mmHg 93%
    05:00 +15°C° 0.1 mm 2 mps 684 mmHg 93%
    06:00 +15°C° 0.1 mm 2 mps 684 mmHg 93%
    07:00 +16°C° 0.1 mm 3 mps 684 mmHg 89%
    08:00 +16°C° 0.1 mm 3 mps 685 mmHg 86%
    09:00 +17°C° 0.1 mm 3 mps 685 mmHg 83%
    10:00 +17°C° 0 mm 3 mps 685 mmHg 79%
    11:00 +18°C° 0 mm 4 mps 686 mmHg 76%
    12:00 +18°C° 0 mm 4 mps 686 mmHg 72%
    13:00 +19°C° 0 mm 4 mps 686 mmHg 71%
    14:00 +19°C° 0 mm 4 mps 686 mmHg 69%
    15:00 +19°C° 0 mm 4 mps 686 mmHg 68%
    16:00 +17°C° 0 mm 3 mps 686 mmHg 75%
    17:00 +16°C° 0 mm 3 mps 686 mmHg 81%
    18:00 +15°C° 0 mm 2 mps 686 mmHg 87%
    19:00 +14°C° 0 mm 2 mps 686 mmHg 89%
    20:00 +14°C° 0 mm 2 mps 686 mmHg 91%
    21:00 +13°C° 0 mm 2 mps 687 mmHg 93%
    22:00 +13°C° 0 mm 1 mps 687 mmHg 93%
    23:00 +13°C° 0 mm 1 mps 687 mmHg 94%

    Day after tomorrow, 27 September, Thursday

    Time Temperature Precipitation Wind Pressure Humidity
    00:00 +13°C° 0 mm 1 mps 687 mmHg 94%
    01:00 +13°C° 0 mm 1 mps 687 mmHg 93%
    02:00 +13°C° 0 mm 1 mps 687 mmHg 92%
    03:00 +12°C° 0 mm 1 mps 687 mmHg 92%
    04:00 +12°C° 0 mm 1 mps 687 mmHg 91%
    05:00 +12°C° 0 mm 1 mps 687 mmHg 91%
    06:00 +11°C° 0 mm 1 mps 687 mmHg 91%
    07:00 +13°C° 0 mm 1 mps 687 mmHg 84%
    08:00 +15°C° 0 mm 2 mps 688 mmHg 77%
    09:00 +16°C° 0 mm 2 mps 688 mmHg 70%
    10:00 +18°C° 0 mm 2 mps 688 mmHg 65%
    11:00 +19°C° 0 mm 3 mps 689 mmHg 60%
    12:00 +20°C° 0 mm 3 mps 689 mmHg 55%
    13:00 +20°C° 0 mm 3 mps 688 mmHg 55%
    14:00 +20°C° 0 mm 3 mps 688 mmHg 56%
    15:00 +20°C° 0 mm 3 mps 688 mmHg 56%
    16:00 +18°C° 0 mm 3 mps 688 mmHg 65%
    17:00 +17°C° 0 mm 2 mps 688 mmHg 74%
    18:00 +15°C° 0 mm 2 mps 687 mmHg 82%
    19:00 +14°C° 0 mm 2 mps 688 mmHg 85%
    20:00 +13°C° 0 mm 1 mps 688 mmHg 88%
    21:00 +13°C° 0 mm 1 mps 688 mmHg 92%
    22:00 +12°C° 0 mm 1 mps 688 mmHg 91%
    23:00 +11°C° 0 mm 0 mps 688 mmHg 91%

    28 September, Friday

    Time Temperature Precipitation Wind Pressure Humidity
    00:00 +10°C° 0 mm 0 mps 687 mmHg 90%
    01:00 +11°C° 0 mm 1 mps 687 mmHg 89%
    02:00 +11°C° 0 mm 1 mps 687 mmHg 87%
    03:00 +11°C° 0 mm 1 mps 687 mmHg 86%
    04:00 +11°C° 0 mm 1 mps 687 mmHg 85%
    05:00 +11°C° 0 mm 1 mps 687 mmHg 83%
    06:00 +11°C° 0 mm 1 mps 687 mmHg 82%
    07:00 +13°C° 0 mm 1 mps 687 mmHg 72%
    08:00 +16°C° 0 mm 2 mps 688 mmHg 63%
    09:00 +18°C° 0 mm 2 mps 688 mmHg 54%
    10:00 +19°C° 0 mm 2 mps 688 mmHg 51%
    11:00 +21°C° 0 mm 3 mps 688 mmHg 49%
    12:00 +22°C° 0 mm 3 mps 688 mmHg 46%
    13:00 +22°C° 0 mm 3 mps 688 mmHg 47%
    14:00 +22°C° 0 mm 3 mps 687 mmHg 48%
    15:00 +22°C° 0 mm 3 mps 687 mmHg 49%
    16:00 +20°C° 0 mm 3 mps 687 mmHg 58%
    17:00 +18°C° 0 mm 2 mps 686 mmHg 67%
    18:00 +16°C° 0 mm 2 mps 686 mmHg 76%
    19:00 +16°C° 0 mm 2 mps 686 mmHg 78%
    20:00 +15°C° 0 mm 2 mps 686 mmHg 80%
    21:00 +14°C° 0 mm 2 mps 686 mmHg 82%
    22:00 +14°C° 0 mm 2 mps 686 mmHg 82%
    23:00 +14°C° 0 mm 2 mps 686 mmHg 81%

    29 September, Saturday

    Time Temperature Precipitation Wind Pressure Humidity
    00:00 +13°C° 0 mm 2 mps 686 mmHg 81%
    01:00 +13°C° 0 mm 2 mps 685 mmHg 81%
    02:00 +14°C° 0 mm 2 mps 685 mmHg 82%
    03:00 +14°C° 0 mm 2 mps 685 mmHg 82%
    04:00 +13°C° 0 mm 2 mps 685 mmHg 82%
    05:00 +13°C° 0 mm 2 mps 684 mmHg 82%
    06:00 +13°C° 0 mm 2 mps 684 mmHg 82%
    07:00 +15°C° 0 mm 2 mps 684 mmHg 74%
    08:00 +17°C° 0 mm 2 mps 685 mmHg 66%
    09:00 +19°C° 0 mm 3 mps 685 mmHg 57%
    10:00 +21°C° 0 mm 3 mps 685 mmHg 53%
    11:00 +22°C° 0 mm 3 mps 685 mmHg 48%
    12:00 +25°C° 0 mm 3 mps 684 mmHg 44%
    13:00 +25°C° 0 mm 3 mps 684 mmHg 42%
    14:00 +26°C° 0 mm 3 mps 684 mmHg 41%
    15:00 +26°C° 0 mm 3 mps 684 mmHg 40%
    16:00 +24°C° 0 mm 3 mps 683 mmHg 49%
    17:00 +20°C° 0 mm 2 mps 683 mmHg 57%
    18:00 +19°C° 0 mm 1 mps 682 mmHg 65%
    19:00 +18°C° 0 mm 1 mps 682 mmHg 66%
    20:00 +16°C° 0 mm 1 mps 683 mmHg 66%
    21:00 +16°C° 0 mm 1 mps 683 mmHg 66%
    22:00 +16°C° 0 mm 2 mps 683 mmHg 66%
    23:00 +15°C° 0 mm 2 mps 683 mmHg 65%

    30 September, Sunday

    Time Temperature Precipitation Wind Pressure Humidity
    00:00 +15°C° 0 mm 2 mps 683 mmHg 64%
    01:00 +15°C° 0 mm 1 mps 682 mmHg 65%
    02:00 +15°C° 0 mm 1 mps 682 mmHg 66%
    03:00 +15°C° 0 mm 1 mps 682 mmHg 67%
    04:00 +15°C° 0 mm 1 mps 682 mmHg 67%
    05:00 +14°C° 0 mm 1 mps 683 mmHg 66%
    06:00 +14°C° 0 mm 1 mps 683 mmHg 65%
    07:00 +18°C° 0 mm 1 mps 683 mmHg 58%
    08:00 +21°C° 0 mm 1 mps 684 mmHg 50%
    09:00 +24°C° 0 mm 2 mps 684 mmHg 42%
    10:00 +26°C° 0 mm 2 mps 684 mmHg 38%
    11:00 +27°C° 0 mm 2 mps 684 mmHg 35%
    12:00 +29°C° 0 mm 2 mps 684 mmHg 32%
    13:00 +29°C° 0 mm 2 mps 684 mmHg 31%
    14:00 +29°C° 0 mm 2 mps 684 mmHg 30%
    15:00 +29°C° 0 mm 2 mps 684 mmHg 30%
    16:00 +27°C° 0 mm 2 mps 683 mmHg 37%
    17:00 +24°C° 0 mm 1 mps 683 mmHg 44%
    18:00 +21°C° 0 mm 1 mps 683 mmHg 52%
    19:00 +21°C° 0 mm 1 mps 683 mmHg 52%
    20:00 +20°C° 0 mm 1 mps 683 mmHg 53%
    21:00 +19°C° 0 mm 1 mps 683 mmHg 53%
    22:00 +18°C° 0 mm 2 mps 683 mmHg 53%
    23:00 +18°C° 0 mm 2 mps 683 mmHg 52%
    Show more